Regional Weather Roundup
Issued by NWS

Home | Current Version | Previous Version | Text Only | Print | Product List | Glossary Off
Versions: 1 2 3 4 5 6 7 8 9 10 11 12 13 14 15 16 17 18 19 20 21 22 23 24 25 26 27 28 29 30 31 32 33 34 35 36 37 38 39 40 41 42 43 44 45 46 47 48 49 50

000
ASUS43 KLSX 172359
RWRMO

WEATHER SUMMARY FOR MISSOURI
NATIONAL WEATHER SERVICE SPRINGFIELD MO
700 PM CDT THU APR 17 2014

NOTE: "FAIR" INDICATES FEW OR NO CLOUDS BELOW 12,000 FEET WITH NO
       SIGNIFICANT WEATHER AND/OR OBSTRUCTIONS TO VISIBILITY.
       CURRENT SKY AND/OR WEATHER CONDITIONS ARE NOT AVAILABLE FOR
       CHILLICOTHE AND FARMINGTON.

MOZ001>031-035>038-043-044-053-054-180100-
...NORTHERN AND WESTERN MISSOURI...

CITY           SKY/WX    TMP DP  RH WIND       PRES   REMARKS
KANSAS CTY INT MOSUNNY   49  32  52 SE5       30.27S
6HR MIN TEMP:  44; 6HR MAX TEMP:  51;

KANSAS C DTWN  MOSUNNY   50  32  50 CALM      30.27F
6HR MIN TEMP:  44; 6HR MAX TEMP:  51;

LEE`S SUMMIT   CLOUDY    47  34  60 CALM      30.28F
6HR MIN TEMP:  42; 6HR MAX TEMP:  47; 6HR PCP: TRACE;

ST JOSEPH      SUNNY     54  31  41 SE8       30.26S
6HR MIN TEMP:  44; 6HR MAX TEMP:  56;

CHILLICOTHE      N/A     51  33  50 SE6       30.29S
6HR MIN TEMP:  44; 6HR MAX TEMP:  52;

KIRKSVILLE     CLOUDY    50  34  54 S7        30.27S
6HR MIN TEMP:  45; 6HR MAX TEMP:  53;


$$
MOZ066>068-077>081-088>096-101>105-180100-
...SOUTHWEST MISSOURI...

CITY           SKY/WX    TMP DP  RH WIND       PRES   REMARKS
SPRINGFIELD    CLOUDY    58  41  53 N14       30.21F
6HR MIN TEMP:  58; 6HR MAX TEMP:  64;

JOPLIN         CLOUDY    54  40  59 N9        30.24F
6HR MIN TEMP:  54; 6HR MAX TEMP:  60;


$$
MOZ032>034-039>042-045>050-055>058-069>072-180100-
...CENTRAL MISSOURI...

CITY           SKY/WX    TMP DP  RH WIND       PRES   REMARKS
COLUMBIA       CLOUDY    50  39  66 NW8       30.26F
6HR MIN TEMP:  50; 6HR MAX TEMP:  57;

JEFFERSON CITY CLOUDY    54  38  54 N9        30.25F
6HR MIN TEMP:  54; 6HR MAX TEMP:  58;

ROLLA          MOCLDY    56  42  59 N8        30.21S
6HR MIN TEMP:  56; 6HR MAX TEMP:  63;

SEDALIA        LGT RAIN  47  41  80 NW3       30.29S
6HR MIN TEMP:  47; 6HR MAX TEMP:  49; 6HR PCP:  0.02;

OSAGE BEACH    CLOUDY    54  37  54 NW7       30.27R

$$
MOZ051-052-059>065-180100-
...EAST CENTRAL MISSOURI...

CITY           SKY/WX    TMP DP  RH WIND       PRES   REMARKS
ST LOUIS INTL  MOCLDY    62  39  42 N8        30.23S
6HR MIN TEMP:  62; 6HR MAX TEMP:  68;

SPIRIT OF STL  MOCLDY    61  39  44 N7        30.22S
6HR MIN TEMP:  61; 6HR MAX TEMP:  66;

ST CHARLES     CLOUDY    60  42  51 N6        30.23R
6HR MIN TEMP:  59; 6HR MAX TEMP:  63;


$$
MOZ072>076-082>087-097>100-106>115-180100-
...SOUTH CENTRAL AND SOUTHEAST MISSOURI...

CITY           SKY/WX    TMP DP  RH WIND       PRES   REMARKS
CAPE GIRARDEAU CLEAR     62  45  53 SW3       30.23S
6HR MIN TEMP:  62; 6HR MAX TEMP:  67;

FARMINGTON     CLEAR     64  36  34 SE10      30.22S
6HR MIN TEMP:  64; 6HR MAX TEMP:  68;

POPLAR BLUFF   CLEAR     64  44  48 SE5       30.21S
6HR MIN TEMP:  63; 6HR MAX TEMP:  67;

WEST PLAINS    PTCLDY    63  35  35 CALM      30.20S
6HR MIN TEMP:  62; 6HR MAX TEMP:  67;


$$



USA.gov is the U.S. government's official web portal to all federal, state and local government web resources and services.